Weather History for Port Huron, MI

Change the Weather History Date:

Monday, January 21, 2013

  Actual Average (KMTC) Record (KMTC)
Temperature  
Mean Temperature 14 °F -  
Max Temperature 21 °F 30 °F 53 °F (1997)
Min Temperature 6 °F 16 °F -7 °F (1970)
Degree Days  
Heating Degree Days 52    
Moisture  
Dew Point 3 °F    
Average Humidity 62    
Maximum Humidity 86    
Minimum Humidity 48    
Precipitation  
Precipitation 0.00 in - - ()
Sea Level Pressure  
Sea Level Pressure 30.00 in    
Wind  
Wind Speed 6 mph (West)    
Max Wind Speed 18 mph    
Max Gust Speed 25 mph    
Visibility 9 miles    
Events Snow    
Averages and records for this station are not official NWS values.
T = Trace of Precipitation, MM = Missing Value Source: NWS Daily Summary

Daily Weather History Graph

Daily Weather History Graph

Search for Another Location

Airport:

Trip Planner

Search our weather history database for the weather conditions in past years. The results will help you decide how hot, cold, wet, or windy it might be!

Date:

Astronomy

Jan. 21, 2013 Rise Set
Actual Time 7:54 AM EST 5:28 PM EST
Civil Twilight 7:23 AM EST 5:59 PM EST
Nautical Twilight 6:49 AM EST 6:34 PM EST
Astronomical Twilight 6:15 AM EST 7:08 PM EST
Moon 1:07 PM EST (1/21) 3:21 AM EST (1/21)
Length of Visible Light 10h 36m
Length of Day
9h 34m
Waxing Gibbous, 75% of the Moon is Illuminated
Jan 21
Waxing Gibbous
Jan 26
Full
Feb 3
Last Quarter
Feb 10
New
Feb 17
First Quarter

Hourly Weather History & Observations

Time (EST) Temp. Windchill Dew Point Humidity Pressure Visibility Wind Dir Wind Speed Gust Speed Precip Events Conditions
12:18 AM 17.6 °F 8.2 °F 3.2 °F 53% 30.12 in 10.0 mi West 6.9 mph - N/A   Overcast
12:38 AM 17.6 °F 9.3 °F 3.2 °F 53% 30.11 in 10.0 mi WSW 5.8 mph - N/A   Overcast
12:58 AM 17.6 °F 10.7 °F 3.2 °F 53% 30.09 in 10.0 mi West 4.6 mph - N/A   Overcast
1:18 AM 15.8 °F 8.6 °F 3.2 °F 58% 30.09 in 10.0 mi WSW 4.6 mph - N/A   Overcast
1:38 AM 15.8 °F 6.1 °F 3.2 °F 58% 30.09 in 10.0 mi West 6.9 mph - N/A   Overcast
1:58 AM 15.8 °F 8.6 °F 3.2 °F 58% 30.08 in 10.0 mi West 4.6 mph - N/A   Scattered Clouds
2:18 AM 14.0 °F 8.2 °F 3.2 °F 62% 30.08 in 10.0 mi WSW 3.5 mph - N/A   Scattered Clouds
2:38 AM 14.0 °F - 5.0 °F 67% 30.08 in 10.0 mi Calm Calm - N/A   Scattered Clouds
2:58 AM 14.0 °F - 5.0 °F 67% 30.07 in 10.0 mi Calm Calm - N/A   Clear
3:38 AM 12.2 °F 6.1 °F 5.0 °F 73% 30.07 in 10.0 mi SW 3.5 mph - N/A   Scattered Clouds
3:58 AM 12.2 °F 6.1 °F 5.0 °F 73% 30.06 in 10.0 mi SW 3.5 mph - N/A   Mostly Cloudy
4:18 AM 14.0 °F 8.2 °F 5.0 °F 67% 30.05 in 10.0 mi SSW 3.5 mph - N/A   Overcast
4:38 AM 14.0 °F 6.5 °F 5.0 °F 67% 30.05 in 10.0 mi SW 4.6 mph - N/A   Mostly Cloudy
4:58 AM 14.0 °F 8.2 °F 5.0 °F 67% 30.04 in 10.0 mi SSW 3.5 mph - N/A   Overcast
5:18 AM 14.0 °F 6.5 °F 5.0 °F 67% 30.03 in 10.0 mi SW 4.6 mph - N/A   Overcast
5:38 AM 14.0 °F 8.2 °F 5.0 °F 67% 30.02 in 10.0 mi SW 3.5 mph - N/A   Overcast
6:18 AM 15.8 °F - 5.0 °F 62% 30.01 in 10.0 mi Calm Calm - N/A   Overcast
6:38 AM 15.8 °F - 5.0 °F 62% 30.01 in 10.0 mi Calm Calm - N/A   Overcast
7:18 AM 15.8 °F 8.6 °F 6.8 °F 68% 30.00 in 5.0 mi SSW 4.6 mph - N/A Snow Light Snow
7:38 AM 15.8 °F - 8.6 °F 73% 30.00 in 2.0 mi Calm Calm - N/A Snow Light Snow
7:58 AM 14.0 °F - 10.4 °F 86% 29.99 in 1.5 mi Calm Calm - N/A Snow Light Snow
8:18 AM 14.0 °F - 10.4 °F 86% 29.99 in 1.0 mi Calm Calm - N/A Snow Light Snow
8:38 AM 14.0 °F - 10.4 °F 86% 29.99 in 1.0 mi Calm Calm - N/A Snow Light Snow
8:58 AM 14.0 °F - 10.4 °F 86% 29.98 in 1.2 mi Calm Calm - N/A Snow Light Snow
9:18 AM 15.8 °F - 10.4 °F 79% 29.98 in 0.8 mi Calm Calm - N/A Snow Light Snow
9:38 AM 15.8 °F - 10.4 °F 79% 29.97 in 2.0 mi Calm Calm - N/A Snow Light Snow
9:58 AM 15.8 °F - 12.2 °F 86% 29.97 in 4.0 mi Calm Calm - N/A Snow Light Snow
10:18 AM 17.6 °F 9.3 °F 12.2 °F 79% 29.97 in 7.0 mi WSW 5.8 mph - N/A   Overcast
10:38 AM 19.4 °F 10.4 °F 10.4 °F 68% 29.96 in 10.0 mi West 6.9 mph - N/A   Overcast
10:58 AM 19.4 °F 7.2 °F 10.4 °F 68% 29.96 in 10.0 mi WNW 11.5 mph - N/A   Mostly Cloudy
11:18 AM 19.4 °F 8.6 °F 10.4 °F 68% 29.96 in 10.0 mi WNW 9.2 mph - N/A   Mostly Cloudy
11:38 AM 17.6 °F 5.7 °F 10.4 °F 73% 29.95 in 7.0 mi NW 10.4 mph - N/A Snow Light Snow
11:58 AM 19.4 °F 10.4 °F 8.6 °F 63% 29.94 in 10.0 mi WNW 6.9 mph - N/A   Mostly Cloudy
12:18 PM 19.4 °F 6.6 °F 6.8 °F 58% 29.93 in 10.0 mi WNW 12.7 mph 19.6 mph N/A   Mostly Cloudy
12:38 PM 21.2 °F 9.5 °F 6.8 °F 54% 29.92 in 10.0 mi WNW 11.5 mph 20.7 mph N/A   Overcast
12:58 PM 17.6 °F 6.4 °F 6.8 °F 63% 29.92 in 10.0 mi WNW 9.2 mph - N/A   Overcast
1:18 PM 19.4 °F 6.6 °F 5.0 °F 54% 29.91 in 10.0 mi West 12.7 mph 19.6 mph N/A   Mostly Cloudy
1:38 PM 19.4 °F 9.5 °F 3.2 °F 49% 29.91 in 10.0 mi West 8.1 mph - N/A   Mostly Cloudy
1:58 PM 19.4 °F 6.0 °F 3.2 °F 49% 29.91 in 10.0 mi WNW 13.8 mph 19.6 mph N/A   Mostly Cloudy
2:18 PM 17.6 °F 3.7 °F 1.4 °F 49% 29.92 in 10.0 mi West 13.8 mph 18.4 mph N/A   Overcast
2:38 PM 17.6 °F 5.0 °F 1.4 °F 49% 29.92 in 10.0 mi WNW 11.5 mph 20.7 mph N/A   Overcast
2:58 PM 17.6 °F 1.7 °F 1.4 °F 49% 29.92 in 10.0 mi WNW 18.4 mph 24.2 mph N/A   Mostly Cloudy
3:18 PM 15.8 °F 4.2 °F 5.0 °F 62% 29.94 in 10.0 mi West 9.2 mph 23.0 mph N/A   Mostly Cloudy
3:38 PM 17.6 °F 3.7 °F 1.4 °F 49% 29.94 in 10.0 mi WNW 13.8 mph 19.6 mph N/A   Scattered Clouds
3:58 PM 15.8 °F 1.4 °F 3.2 °F 58% 29.95 in 7.0 mi WNW 13.8 mph 24.2 mph N/A   Mostly Cloudy
4:18 PM 15.8 °F 3.4 °F -0.4 °F 49% 29.96 in 10.0 mi West 10.4 mph 19.6 mph N/A   Scattered Clouds
4:38 PM 14.0 °F 1.2 °F 3.2 °F 62% 29.97 in 10.0 mi West 10.4 mph 21.9 mph N/A   Mostly Cloudy
4:58 PM 14.0 °F 2.9 °F -0.4 °F 53% 29.97 in 10.0 mi West 8.1 mph 16.1 mph N/A   Mostly Cloudy
5:18 PM 14.0 °F -1.4 °F -2.2 °F 49% 29.98 in 10.0 mi West 15.0 mph 25.3 mph N/A   Mostly Cloudy
5:38 PM 14.0 °F 6.5 °F -2.2 °F 49% 29.98 in 10.0 mi West 4.6 mph - N/A   Mostly Cloudy
5:58 PM 12.2 °F 0.7 °F -2.2 °F 53% 29.99 in 10.0 mi West 8.1 mph 16.1 mph N/A   Mostly Cloudy
6:18 PM 12.2 °F -1.8 °F -0.4 °F 57% 29.99 in 10.0 mi West 11.5 mph 17.3 mph N/A   Scattered Clouds
6:38 PM 12.2 °F 0.7 °F 1.4 °F 62% 29.99 in 10.0 mi West 8.1 mph - N/A   Scattered Clouds
6:58 PM 12.2 °F 1.7 °F -0.4 °F 57% 30.00 in 10.0 mi West 6.9 mph 17.3 mph N/A   Scattered Clouds
7:18 PM 10.4 °F -2.4 °F -0.4 °F 62% 30.00 in 10.0 mi West 9.2 mph 18.4 mph N/A   Clear
7:38 PM 10.4 °F -2.4 °F -2.2 °F 57% 30.01 in 10.0 mi West 9.2 mph - N/A   Clear
7:58 PM 10.4 °F -3.3 °F -0.4 °F 62% 30.01 in 10.0 mi West 10.4 mph 18.4 mph N/A   Clear
8:18 PM 10.4 °F -0.4 °F -0.4 °F 62% 30.01 in 10.0 mi West 6.9 mph - N/A   Clear
8:38 PM 10.4 °F -1.5 °F -2.2 °F 57% 30.01 in 10.0 mi West 8.1 mph - N/A   Scattered Clouds
8:58 PM 8.6 °F -5.5 °F -0.4 °F 67% 30.02 in 10.0 mi WNW 10.4 mph - N/A   Scattered Clouds
9:18 PM 8.6 °F -7.7 °F -0.4 °F 67% 30.02 in 7.0 mi WNW 13.8 mph 18.4 mph N/A   Overcast
9:38 PM 8.6 °F -8.9 °F -0.4 °F 67% 30.03 in 7.0 mi WNW 16.1 mph 23.0 mph N/A   Mostly Cloudy
10:18 PM 6.8 °F -10.0 °F -4.0 °F 61% 30.04 in 10.0 mi WNW 13.8 mph 17.3 mph N/A   Clear
10:38 PM 6.8 °F -3.5 °F -5.8 °F 56% 30.04 in 10.0 mi West 5.8 mph 20.7 mph N/A   Clear
10:58 PM 6.8 °F -7.8 °F -7.6 °F 52% 30.04 in 10.0 mi West 10.4 mph 17.3 mph N/A   Clear
11:18 PM 6.8 °F -5.9 °F -9.4 °F 48% 30.05 in 10.0 mi West 8.1 mph 18.4 mph N/A   Clear
11:38 PM 6.8 °F -5.9 °F -9.4 °F 48% 30.04 in 10.0 mi West 8.1 mph - N/A   Clear
11:58 PM 6.8 °F -5.9 °F -7.6 °F 52% 30.05 in 10.0 mi West 8.1 mph - N/A   Clear